Year,Month,Day,Hour,Minute,Value (Times are PST for temperature in C)
2013,07,15,00,00,14.20
2013,07,15,00,01,14.20
2013,07,15,00,02,14.20
2013,07,15,00,03,14.20
2013,07,15,00,04,14.20
2013,07,15,00,05,14.20
2013,07,15,00,06,14.20
2013,07,15,00,07,14.20
2013,07,15,00,08,14.20
2013,07,15,00,09,14.20
2013,07,15,00,10,14.20
2013,07,15,00,11,14.10
2013,07,15,00,12,14.10
2013,07,15,00,13,14.10
2013,07,15,00,14,14.10
2013,07,15,00,15,14.10
2013,07,15,00,16,14.10
2013,07,15,00,17,14.10
2013,07,15,00,18,14.10
2013,07,15,00,19,14.10
2013,07,15,00,20,14.10
2013,07,15,00,21,14.10
2013,07,15,00,22,14.10
2013,07,15,00,23,14.10
2013,07,15,00,24,14.10
2013,07,15,00,25,14.10
2013,07,15,00,26,14.10
2013,07,15,00,27,14.10
2013,07,15,00,28,14.10
2013,07,15,00,29,14.00
2013,07,15,00,30,14.00
2013,07,15,00,31,14.00
2013,07,15,00,32,14.00
2013,07,15,00,33,14.00
2013,07,15,00,34,14.10
2013,07,15,00,35,14.10
2013,07,15,00,36,14.10
2013,07,15,00,37,14.10
2013,07,15,00,38,14.10
2013,07,15,00,39,14.00
2013,07,15,00,40,14.00
2013,07,15,00,41,14.00
2013,07,15,00,42,14.00
2013,07,15,00,43,14.00
2013,07,15,00,44,14.00
2013,07,15,00,45,14.00
2013,07,15,00,46,14.00
2013,07,15,00,47,14.00
2013,07,15,00,48,14.00
2013,07,15,00,49,14.00
2013,07,15,00,50,14.00
2013,07,15,00,51,14.00
2013,07,15,00,52,13.90
2013,07,15,00,53,13.90
2013,07,15,00,54,13.90
2013,07,15,00,55,13.90
2013,07,15,00,56,13.90
2013,07,15,00,57,13.90
2013,07,15,00,58,13.90
2013,07,15,00,59,13.90
2013,07,15,01,00,13.90
2013,07,15,01,01,13.90
2013,07,15,01,02,13.90
2013,07,15,01,03,13.90
2013,07,15,01,04,13.80
2013,07,15,01,05,13.80
2013,07,15,01,06,13.80
2013,07,15,01,07,13.80
2013,07,15,01,08,13.80
2013,07,15,01,09,13.70
2013,07,15,01,10,13.70
2013,07,15,01,11,13.70
2013,07,15,01,12,13.70
2013,07,15,01,13,13.70
2013,07,15,01,14,13.70
2013,07,15,01,15,13.70
2013,07,15,01,16,13.70
2013,07,15,01,17,13.70
2013,07,15,01,18,13.70
2013,07,15,01,19,13.70
2013,07,15,01,20,13.70
2013,07,15,01,21,13.70
2013,07,15,01,22,13.60
2013,07,15,01,23,13.60
2013,07,15,01,24,13.60
2013,07,15,01,25,13.60
2013,07,15,01,26,13.60
2013,07,15,01,27,13.60
2013,07,15,01,28,13.60
2013,07,15,01,29,13.60
2013,07,15,01,30,13.60
2013,07,15,01,31,13.60
2013,07,15,01,32,13.60
2013,07,15,01,33,13.60
2013,07,15,01,34,13.60
2013,07,15,01,35,13.60
2013,07,15,01,36,13.60
2013,07,15,01,37,13.50
2013,07,15,01,38,13.50
2013,07,15,01,39,13.50
2013,07,15,01,40,13.50
2013,07,15,01,41,13.40
2013,07,15,01,42,13.40
2013,07,15,01,43,13.40
2013,07,15,01,44,13.30
2013,07,15,01,45,13.30
2013,07,15,01,46,13.30
2013,07,15,01,47,13.30
2013,07,15,01,48,13.30
2013,07,15,01,49,13.30
2013,07,15,01,50,13.30
2013,07,15,01,51,13.20
2013,07,15,01,52,13.20
2013,07,15,01,53,13.20
2013,07,15,01,54,13.20
2013,07,15,01,55,13.20
2013,07,15,01,56,13.20
2013,07,15,01,57,13.20
2013,07,15,01,58,13.20
2013,07,15,01,59,13.10
2013,07,15,02,00,13.10
2013,07,15,02,01,13.10
2013,07,15,02,02,13.10
2013,07,15,02,03,13.10
2013,07,15,02,04,13.00
2013,07,15,02,05,13.00
2013,07,15,02,06,13.00
2013,07,15,02,07,13.00
2013,07,15,02,08,13.00
2013,07,15,02,09,13.00
2013,07,15,02,10,13.00
2013,07,15,02,11,12.90
2013,07,15,02,12,12.90
2013,07,15,02,13,12.90
2013,07,15,02,14,12.90
2013,07,15,02,15,12.90
2013,07,15,02,16,12.90
2013,07,15,02,17,12.90
2013,07,15,02,18,12.80
2013,07,15,02,19,12.80
2013,07,15,02,20,12.80
2013,07,15,02,21,12.80
2013,07,15,02,22,12.80
2013,07,15,02,23,12.80
2013,07,15,02,24,12.80
2013,07,15,02,25,12.80
2013,07,15,02,26,12.80
2013,07,15,02,27,12.80
2013,07,15,02,28,12.80
2013,07,15,02,29,12.80
2013,07,15,02,30,12.80
2013,07,15,02,31,12.80
2013,07,15,02,32,12.80
2013,07,15,02,33,12.80
2013,07,15,02,34,12.80
2013,07,15,02,35,12.80
2013,07,15,02,36,12.80
2013,07,15,02,37,12.80
2013,07,15,02,38,12.80
2013,07,15,02,39,12.80
2013,07,15,02,40,12.80
2013,07,15,02,41,12.80
2013,07,15,02,42,12.80
2013,07,15,02,43,12.80
2013,07,15,02,44,12.80
2013,07,15,02,45,12.70
2013,07,15,02,46,12.80
2013,07,15,02,47,12.80
2013,07,15,02,48,12.70
2013,07,15,02,49,12.70
2013,07,15,02,50,12.70
2013,07,15,02,51,12.70
2013,07,15,02,52,12.70
2013,07,15,02,53,12.70
2013,07,15,02,54,12.70
2013,07,15,02,55,12.60
2013,07,15,02,56,12.60
2013,07,15,02,57,12.60
2013,07,15,02,58,12.60
2013,07,15,02,59,12.60
2013,07,15,03,00,12.50
2013,07,15,03,01,12.50
2013,07,15,03,02,12.50
2013,07,15,03,03,12.40
2013,07,15,03,04,12.40
2013,07,15,03,05,12.40
2013,07,15,03,06,12.40
2013,07,15,03,07,12.40
2013,07,15,03,08,12.30
2013,07,15,03,09,12.30
2013,07,15,03,10,12.30
2013,07,15,03,11,12.30
2013,07,15,03,12,12.40
2013,07,15,03,13,12.40
2013,07,15,03,14,12.40
2013,07,15,03,15,12.40
2013,07,15,03,16,12.40
2013,07,15,03,17,12.40
2013,07,15,03,18,12.40
2013,07,15,03,19,12.40
2013,07,15,03,20,12.40
2013,07,15,03,21,12.40
2013,07,15,03,22,12.40
2013,07,15,03,23,12.40
2013,07,15,03,24,12.40
2013,07,15,03,25,12.40
2013,07,15,03,26,12.40
2013,07,15,03,27,12.40
2013,07,15,03,28,12.40
2013,07,15,03,29,12.40
2013,07,15,03,30,12.40
2013,07,15,03,31,12.40
2013,07,15,03,32,12.40
2013,07,15,03,33,12.40
2013,07,15,03,34,12.40
2013,07,15,03,35,12.40
2013,07,15,03,36,12.40
2013,07,15,03,37,12.30
2013,07,15,03,38,12.30
2013,07,15,03,39,12.30
2013,07,15,03,40,12.30
2013,07,15,03,41,12.30
2013,07,15,03,42,12.30
2013,07,15,03,43,12.30
2013,07,15,03,44,12.30
2013,07,15,03,45,12.30
2013,07,15,03,46,12.30
2013,07,15,03,47,12.30
2013,07,15,03,48,12.30
2013,07,15,03,49,12.30
2013,07,15,03,50,12.30
2013,07,15,03,51,12.30
2013,07,15,03,52,12.30
2013,07,15,03,53,12.30
2013,07,15,03,54,12.30
2013,07,15,03,55,12.30
2013,07,15,03,56,12.30
2013,07,15,03,57,12.30
2013,07,15,03,58,12.30
2013,07,15,03,59,12.30
2013,07,15,04,00,12.30
2013,07,15,04,01,12.30
2013,07,15,04,02,12.30
2013,07,15,04,03,12.20
2013,07,15,04,04,12.20
2013,07,15,04,05,12.20
2013,07,15,04,06,12.20
2013,07,15,04,07,12.20
2013,07,15,04,08,12.20
2013,07,15,04,09,12.10
2013,07,15,04,10,12.10
2013,07,15,04,11,12.10
2013,07,15,04,12,12.10
2013,07,15,04,13,12.10
2013,07,15,04,14,12.10
2013,07,15,04,15,12.10
2013,07,15,04,16,12.10
2013,07,15,04,17,12.00
2013,07,15,04,18,12.00
2013,07,15,04,19,12.00
2013,07,15,04,20,12.00
2013,07,15,04,21,12.00
2013,07,15,04,22,12.00
2013,07,15,04,23,12.00
2013,07,15,04,24,12.00
2013,07,15,04,25,12.00
2013,07,15,04,26,11.90
2013,07,15,04,27,11.90
2013,07,15,04,28,11.90
2013,07,15,04,29,11.90
2013,07,15,04,30,11.90
2013,07,15,04,31,11.90
2013,07,15,04,32,11.90
2013,07,15,04,33,11.90
2013,07,15,04,34,11.90
2013,07,15,04,35,11.90
2013,07,15,04,36,11.90
2013,07,15,04,37,11.80
2013,07,15,04,38,11.80
2013,07,15,04,39,11.80
2013,07,15,04,40,11.80
2013,07,15,04,41,11.80
2013,07,15,04,42,11.80
2013,07,15,04,43,11.80
2013,07,15,04,44,11.80
2013,07,15,04,45,11.80
2013,07,15,04,46,11.70
2013,07,15,04,47,11.70
2013,07,15,04,48,11.70
2013,07,15,04,49,11.70
2013,07,15,04,50,11.70
2013,07,15,04,51,11.80
2013,07,15,04,52,11.80
2013,07,15,04,53,11.80
2013,07,15,04,54,11.80
2013,07,15,04,55,11.80
2013,07,15,04,56,11.80
2013,07,15,04,57,11.80
2013,07,15,04,58,11.80
2013,07,15,04,59,11.80
2013,07,15,05,00,11.80
2013,07,15,05,01,11.80
2013,07,15,05,02,11.80
2013,07,15,05,03,11.80
2013,07,15,05,04,11.80
2013,07,15,05,05,11.80
2013,07,15,05,06,11.80
2013,07,15,05,07,11.80
2013,07,15,05,08,11.80
2013,07,15,05,09,11.80
2013,07,15,05,10,11.80
2013,07,15,05,11,11.80
2013,07,15,05,12,11.80
2013,07,15,05,13,11.80
2013,07,15,05,14,11.80
2013,07,15,05,15,11.80
2013,07,15,05,16,11.80
2013,07,15,05,17,11.70
2013,07,15,05,18,11.70
2013,07,15,05,19,11.70
2013,07,15,05,20,11.70
2013,07,15,05,21,11.60
2013,07,15,05,22,11.60
2013,07,15,05,23,11.70
2013,07,15,05,24,11.60
2013,07,15,05,25,11.60
2013,07,15,05,26,11.60
2013,07,15,05,27,11.60
2013,07,15,05,28,11.60
2013,07,15,05,29,11.60
2013,07,15,05,30,11.60
2013,07,15,05,31,11.60
2013,07,15,05,32,11.60
2013,07,15,05,33,11.60
2013,07,15,05,34,11.60
2013,07,15,05,35,11.70
2013,07,15,05,36,11.70
2013,07,15,05,37,11.70
2013,07,15,05,38,11.70
2013,07,15,05,39,11.70
2013,07,15,05,40,11.80
2013,07,15,05,41,11.80
2013,07,15,05,42,11.80
2013,07,15,05,43,11.80
2013,07,15,05,44,11.80
2013,07,15,05,45,11.80
2013,07,15,05,46,11.80
2013,07,15,05,47,11.80
2013,07,15,05,48,11.80
2013,07,15,05,49,11.80
2013,07,15,05,50,11.70
2013,07,15,05,51,11.70
2013,07,15,05,52,11.70
2013,07,15,05,53,11.70
2013,07,15,05,54,11.70
2013,07,15,05,55,11.70
2013,07,15,05,56,11.70
2013,07,15,05,57,11.70
2013,07,15,05,58,11.70
2013,07,15,05,59,11.70
2013,07,15,06,00,11.70
2013,07,15,06,01,11.70
2013,07,15,06,02,11.70
2013,07,15,06,03,11.70
2013,07,15,06,04,11.70
2013,07,15,06,05,11.70
2013,07,15,06,06,11.70
2013,07,15,06,07,11.70
2013,07,15,06,08,11.70
2013,07,15,06,09,11.70
2013,07,15,06,10,11.70
2013,07,15,06,11,11.70
2013,07,15,06,12,11.80
2013,07,15,06,13,11.80
2013,07,15,06,14,11.80
2013,07,15,06,15,11.80
2013,07,15,06,16,11.80
2013,07,15,06,17,11.80
2013,07,15,06,18,11.90
2013,07,15,06,19,11.90
2013,07,15,06,20,12.00
2013,07,15,06,21,12.00
2013,07,15,06,22,12.00
2013,07,15,06,23,12.10
2013,07,15,06,24,12.10
2013,07,15,06,25,12.10
2013,07,15,06,26,12.20
2013,07,15,06,27,12.20
2013,07,15,06,28,12.20
2013,07,15,06,29,12.20
2013,07,15,06,30,12.30
2013,07,15,06,31,12.30
2013,07,15,06,32,12.30
2013,07,15,06,33,12.30
2013,07,15,06,34,12.40
2013,07,15,06,35,12.40
2013,07,15,06,36,12.50
2013,07,15,06,37,12.50
2013,07,15,06,38,12.50
2013,07,15,06,39,12.50
2013,07,15,06,40,12.60
2013,07,15,06,41,12.60
2013,07,15,06,42,12.60
2013,07,15,06,43,12.70
2013,07,15,06,44,12.70
2013,07,15,06,45,12.80
2013,07,15,06,46,12.80
2013,07,15,06,47,12.90
2013,07,15,06,48,13.00
2013,07,15,06,49,13.00
2013,07,15,06,50,13.00
2013,07,15,06,51,13.00
2013,07,15,06,52,13.00
2013,07,15,06,53,13.00
2013,07,15,06,54,13.10
2013,07,15,06,55,13.10
2013,07,15,06,56,13.10
2013,07,15,06,57,13.10
2013,07,15,06,58,13.10
2013,07,15,06,59,13.10
2013,07,15,07,00,13.10
2013,07,15,07,01,13.20
2013,07,15,07,02,13.20
2013,07,15,07,03,13.20
2013,07,15,07,04,13.30
2013,07,15,07,05,13.30
2013,07,15,07,06,13.30
2013,07,15,07,07,13.30
2013,07,15,07,08,13.40
2013,07,15,07,09,13.40
2013,07,15,07,10,13.50
2013,07,15,07,11,13.50
2013,07,15,07,12,13.50
2013,07,15,07,13,13.50
2013,07,15,07,14,13.50
2013,07,15,07,15,13.50
2013,07,15,07,16,13.60
2013,07,15,07,17,13.50
2013,07,15,07,18,13.50
2013,07,15,07,19,13.50
2013,07,15,07,20,13.50
2013,07,15,07,21,13.40
2013,07,15,07,22,13.40
2013,07,15,07,23,13.40
2013,07,15,07,24,13.40
2013,07,15,07,25,13.50
2013,07,15,07,26,13.50
2013,07,15,07,27,13.50
2013,07,15,07,28,13.50
2013,07,15,07,29,13.50
2013,07,15,07,30,13.60
2013,07,15,07,31,13.60
2013,07,15,07,32,13.70
2013,07,15,07,33,13.70
2013,07,15,07,34,13.80
2013,07,15,07,35,13.80
2013,07,15,07,36,13.90
2013,07,15,07,37,13.90
2013,07,15,07,38,13.90
2013,07,15,07,39,14.00
2013,07,15,07,40,14.00
2013,07,15,07,41,14.00
2013,07,15,07,42,14.10
2013,07,15,07,43,14.10
2013,07,15,07,44,14.20
2013,07,15,07,45,14.20
2013,07,15,07,46,14.20
2013,07,15,07,47,14.30
2013,07,15,07,48,14.30
2013,07,15,07,49,14.40
2013,07,15,07,50,14.50
2013,07,15,07,51,14.50
2013,07,15,07,52,14.60
2013,07,15,07,53,14.60
2013,07,15,07,54,14.60
2013,07,15,07,55,14.70
2013,07,15,07,56,14.80
2013,07,15,07,57,14.80
2013,07,15,07,58,14.80
2013,07,15,07,59,14.90
2013,07,15,08,00,15.00
2013,07,15,08,01,15.00
2013,07,15,08,02,15.10
2013,07,15,08,03,15.20
2013,07,15,08,04,15.20
2013,07,15,08,05,15.30
2013,07,15,08,06,15.30
2013,07,15,08,07,15.30
2013,07,15,08,08,15.30
2013,07,15,08,09,15.40
2013,07,15,08,10,15.40
2013,07,15,08,11,15.40
2013,07,15,08,12,15.40
2013,07,15,08,13,15.40
2013,07,15,08,14,15.50
2013,07,15,08,15,15.50
2013,07,15,08,16,15.50
2013,07,15,08,17,15.50
2013,07,15,08,18,15.60
2013,07,15,08,19,15.60
2013,07,15,08,20,15.70
2013,07,15,08,21,15.70
2013,07,15,08,22,15.80
2013,07,15,08,23,15.80
2013,07,15,08,24,15.80
2013,07,15,08,25,15.90
2013,07,15,08,26,16.00
2013,07,15,08,27,16.10
2013,07,15,08,28,16.10
2013,07,15,08,29,16.20
2013,07,15,08,30,16.20
2013,07,15,08,31,16.30
2013,07,15,08,32,16.40
2013,07,15,08,33,16.40
2013,07,15,08,34,16.40
2013,07,15,08,35,16.40
2013,07,15,08,36,16.40
2013,07,15,08,37,16.40
2013,07,15,08,38,16.40
2013,07,15,08,39,16.40
2013,07,15,08,40,16.50
2013,07,15,08,41,16.60
2013,07,15,08,42,16.60
2013,07,15,08,43,16.60
2013,07,15,08,44,16.60
2013,07,15,08,45,16.60
2013,07,15,08,46,16.60
2013,07,15,08,47,16.60
2013,07,15,08,48,16.70
2013,07,15,08,49,16.70
2013,07,15,08,50,16.70
2013,07,15,08,51,16.70
2013,07,15,08,52,16.70
2013,07,15,08,53,16.70
2013,07,15,08,54,16.70
2013,07,15,08,55,16.70
2013,07,15,08,56,16.70
2013,07,15,08,57,16.70
2013,07,15,08,58,16.70
2013,07,15,08,59,16.80
2013,07,15,09,00,16.80
2013,07,15,09,01,16.80
2013,07,15,09,02,16.90
2013,07,15,09,03,16.90
2013,07,15,09,04,16.90
2013,07,15,09,05,17.00
2013,07,15,09,06,17.00
2013,07,15,09,07,17.10
2013,07,15,09,08,17.20
2013,07,15,09,09,17.30
2013,07,15,09,10,17.40
2013,07,15,09,11,17.40
2013,07,15,09,12,17.40
2013,07,15,09,13,17.40
2013,07,15,09,14,17.30
2013,07,15,09,15,17.30
2013,07,15,09,16,17.30
2013,07,15,09,17,17.30
2013,07,15,09,18,17.20
2013,07,15,09,19,17.10
2013,07,15,09,20,17.00
2013,07,15,09,21,17.00
2013,07,15,09,22,17.00
2013,07,15,09,23,17.00
2013,07,15,09,24,17.10
2013,07,15,09,25,17.10
2013,07,15,09,26,17.30
2013,07,15,09,27,17.40
2013,07,15,09,28,17.40
2013,07,15,09,29,17.40
2013,07,15,09,30,17.30
2013,07,15,09,31,17.30
2013,07,15,09,32,17.30
2013,07,15,09,33,17.30
2013,07,15,09,34,17.40
2013,07,15,09,35,17.40
2013,07,15,09,36,17.40
2013,07,15,09,37,17.30
2013,07,15,09,38,17.30
2013,07,15,09,39,17.20
2013,07,15,09,40,17.10
2013,07,15,09,41,17.00
2013,07,15,09,42,17.00
2013,07,15,09,43,17.00
2013,07,15,09,44,17.00
2013,07,15,09,45,16.90
2013,07,15,09,46,16.90
2013,07,15,09,47,17.00
2013,07,15,09,48,17.10
2013,07,15,09,49,17.10
2013,07,15,09,50,17.10
2013,07,15,09,51,17.10
2013,07,15,09,52,17.00
2013,07,15,09,53,17.10
2013,07,15,09,54,17.10
2013,07,15,09,55,17.20
2013,07,15,09,56,17.20
2013,07,15,09,57,17.20
2013,07,15,09,58,17.10
2013,07,15,09,59,17.20
2013,07,15,10,00,17.20
2013,07,15,10,01,17.10
2013,07,15,10,02,17.10
2013,07,15,10,03,17.00
2013,07,15,10,04,16.90
2013,07,15,10,05,16.90
2013,07,15,10,06,17.00
2013,07,15,10,07,17.10
2013,07,15,10,08,17.20
2013,07,15,10,09,17.30
2013,07,15,10,10,17.50
2013,07,15,10,11,17.60
2013,07,15,10,12,17.70
2013,07,15,10,13,17.80
2013,07,15,10,14,17.80
2013,07,15,10,15,17.90
2013,07,15,10,16,18.00
2013,07,15,10,17,18.10
2013,07,15,10,18,18.30
2013,07,15,10,19,18.30
2013,07,15,10,20,18.20
2013,07,15,10,21,18.10
2013,07,15,10,22,18.00
2013,07,15,10,23,17.90
2013,07,15,10,24,17.90
2013,07,15,10,25,17.90
2013,07,15,10,26,18.00
2013,07,15,10,27,17.90
2013,07,15,10,28,18.00
2013,07,15,10,29,18.10
2013,07,15,10,30,18.20
2013,07,15,10,31,18.30
2013,07,15,10,32,18.40
2013,07,15,10,33,18.40
2013,07,15,10,34,18.30
2013,07,15,10,35,18.30
2013,07,15,10,36,18.40
2013,07,15,10,37,18.50
2013,07,15,10,38,18.50
2013,07,15,10,39,18.50
2013,07,15,10,40,18.50
2013,07,15,10,41,18.60
2013,07,15,10,42,18.60
2013,07,15,10,43,18.60
2013,07,15,10,44,18.70
2013,07,15,10,45,18.90
2013,07,15,10,46,19.10
2013,07,15,10,47,19.20
2013,07,15,10,48,19.20
2013,07,15,10,49,19.20
2013,07,15,10,50,19.30
2013,07,15,10,51,19.40
2013,07,15,10,52,19.50
2013,07,15,10,53,19.60
2013,07,15,10,54,19.60
2013,07,15,10,55,19.80
2013,07,15,10,56,19.90
2013,07,15,10,57,19.90
2013,07,15,10,58,20.00
2013,07,15,10,59,20.20
2013,07,15,11,00,20.20
2013,07,15,11,01,20.30
2013,07,15,11,02,20.50
2013,07,15,11,03,20.60
2013,07,15,11,04,20.70
2013,07,15,11,05,20.80
2013,07,15,11,06,20.90
2013,07,15,11,07,21.00
2013,07,15,11,08,21.00
2013,07,15,11,09,21.00
2013,07,15,11,10,21.00
2013,07,15,11,11,21.10
2013,07,15,11,12,21.30
2013,07,15,11,13,21.50
2013,07,15,11,14,21.80
2013,07,15,11,15,22.00
2013,07,15,11,16,22.20
2013,07,15,11,17,22.30
2013,07,15,11,18,22.40
2013,07,15,11,19,22.40
2013,07,15,11,20,22.40
2013,07,15,11,21,22.50
2013,07,15,11,22,22.50
2013,07,15,11,23,22.40
2013,07,15,11,24,22.40
2013,07,15,11,25,22.50
2013,07,15,11,26,22.50
2013,07,15,11,27,22.60
2013,07,15,11,28,22.70
2013,07,15,11,29,22.70
2013,07,15,11,30,22.80
2013,07,15,11,31,22.70
2013,07,15,11,32,22.60
2013,07,15,11,33,22.70
2013,07,15,11,34,22.80
2013,07,15,11,35,22.90
2013,07,15,11,36,23.00
2013,07,15,11,37,22.80
2013,07,15,11,38,22.50
2013,07,15,11,39,22.20
2013,07,15,11,40,21.80
2013,07,15,11,41,21.60
2013,07,15,11,42,21.50
2013,07,15,11,43,21.30
2013,07,15,11,44,21.30
2013,07,15,11,45,21.20
2013,07,15,11,46,21.20
2013,07,15,11,47,21.10
2013,07,15,11,48,21.00
2013,07,15,11,49,21.00
2013,07,15,11,50,21.00
2013,07,15,11,51,21.00
2013,07,15,11,52,21.10
2013,07,15,11,53,21.10
2013,07,15,11,54,21.20
2013,07,15,11,55,21.30
2013,07,15,11,56,21.40
2013,07,15,11,57,21.60
2013,07,15,11,58,21.80
2013,07,15,11,59,22.10
2013,07,15,12,00,22.40
2013,07,15,12,01,22.70
2013,07,15,12,02,22.80
2013,07,15,12,03,22.80
2013,07,15,12,04,22.60
2013,07,15,12,05,22.40
2013,07,15,12,06,22.20
2013,07,15,12,07,22.10
2013,07,15,12,08,21.90
2013,07,15,12,09,21.80
2013,07,15,12,10,21.80
2013,07,15,12,11,21.80
2013,07,15,12,12,21.80
2013,07,15,12,13,21.70
2013,07,15,12,14,21.60
2013,07,15,12,15,21.60
2013,07,15,12,16,21.60
2013,07,15,12,17,21.60
2013,07,15,12,18,21.60
2013,07,15,12,19,21.60
2013,07,15,12,20,21.70
2013,07,15,12,21,21.70
2013,07,15,12,22,21.80
2013,07,15,12,23,21.70
2013,07,15,12,24,21.70
2013,07,15,12,25,21.60
2013,07,15,12,26,21.70
2013,07,15,12,27,21.70
2013,07,15,12,28,21.80
2013,07,15,12,29,21.90
2013,07,15,12,30,22.00
2013,07,15,12,31,22.00
2013,07,15,12,32,22.00
2013,07,15,12,33,22.10
2013,07,15,12,34,22.20
2013,07,15,12,35,22.40
2013,07,15,12,36,22.50
2013,07,15,12,37,22.60
2013,07,15,12,38,22.60
2013,07,15,12,39,22.80
2013,07,15,12,40,22.80
2013,07,15,12,41,22.90
2013,07,15,12,42,22.90
2013,07,15,12,43,22.90
2013,07,15,12,44,23.00
2013,07,15,12,45,23.20
2013,07,15,12,46,23.40
2013,07,15,12,47,23.30
2013,07,15,12,48,23.30
2013,07,15,12,49,23.20
2013,07,15,12,50,23.00
2013,07,15,12,51,22.90
2013,07,15,12,52,22.90
2013,07,15,12,53,22.90
2013,07,15,12,54,22.90
2013,07,15,12,55,22.80
2013,07,15,12,56,22.70
2013,07,15,12,57,22.40
2013,07,15,12,58,22.10
2013,07,15,12,59,21.80
2013,07,15,13,00,21.60
2013,07,15,13,01,21.50
2013,07,15,13,02,21.40
2013,07,15,13,03,21.20
2013,07,15,13,04,21.20
2013,07,15,13,05,21.30
2013,07,15,13,06,21.40
2013,07,15,13,07,21.50
2013,07,15,13,08,21.60
2013,07,15,13,09,21.60
2013,07,15,13,10,21.50
2013,07,15,13,11,21.40
2013,07,15,13,12,21.30
2013,07,15,13,13,21.30
2013,07,15,13,14,21.30
2013,07,15,13,15,21.30
2013,07,15,13,16,21.20
2013,07,15,13,17,21.30
2013,07,15,13,18,21.40
2013,07,15,13,19,21.60
2013,07,15,13,20,21.60
2013,07,15,13,21,21.60
2013,07,15,13,22,21.60
2013,07,15,13,23,21.60
2013,07,15,13,24,21.60
2013,07,15,13,25,21.60
2013,07,15,13,26,21.60
2013,07,15,13,27,21.60
2013,07,15,13,28,21.60
2013,07,15,13,29,21.80
2013,07,15,13,30,21.90
2013,07,15,13,31,22.10
2013,07,15,13,32,22.30
2013,07,15,13,33,22.40
2013,07,15,13,34,22.40
2013,07,15,13,35,22.20
2013,07,15,13,36,22.00
2013,07,15,13,37,21.80
2013,07,15,13,38,21.80
2013,07,15,13,39,22.00
2013,07,15,13,40,22.00
2013,07,15,13,41,22.10
2013,07,15,13,42,22.10
2013,07,15,13,43,22.20
2013,07,15,13,44,22.20
2013,07,15,13,45,22.30
2013,07,15,13,46,22.40
2013,07,15,13,47,22.30
2013,07,15,13,48,22.30
2013,07,15,13,49,22.40
2013,07,15,13,50,22.50
2013,07,15,13,51,22.60
2013,07,15,13,52,22.60
2013,07,15,13,53,22.60
2013,07,15,13,54,22.70
2013,07,15,13,55,22.60
2013,07,15,13,56,22.60
2013,07,15,13,57,22.50
2013,07,15,13,58,22.50
2013,07,15,13,59,22.60
2013,07,15,14,00,22.60
2013,07,15,14,01,22.70
2013,07,15,14,02,22.70
2013,07,15,14,03,22.70
2013,07,15,14,04,22.70
2013,07,15,14,05,22.70
2013,07,15,14,06,22.60
2013,07,15,14,07,22.60
2013,07,15,14,08,22.60
2013,07,15,14,09,22.50
2013,07,15,14,10,22.40
2013,07,15,14,11,22.50
2013,07,15,14,12,22.60
2013,07,15,14,13,22.70
2013,07,15,14,14,22.60
2013,07,15,14,15,22.60
2013,07,15,14,16,22.70
2013,07,15,14,17,22.70
2013,07,15,14,18,22.70
2013,07,15,14,19,22.60
2013,07,15,14,20,22.50
2013,07,15,14,21,22.50
2013,07,15,14,22,22.60
2013,07,15,14,23,22.70
2013,07,15,14,24,22.70
2013,07,15,14,25,22.70
2013,07,15,14,26,22.60
2013,07,15,14,27,22.60
2013,07,15,14,28,22.70
2013,07,15,14,29,22.90
2013,07,15,14,30,22.80
2013,07,15,14,31,22.80
2013,07,15,14,32,22.90
2013,07,15,14,33,22.90
2013,07,15,14,34,22.70
2013,07,15,14,35,22.80
2013,07,15,14,36,22.80
2013,07,15,14,37,22.70
2013,07,15,14,38,22.70
2013,07,15,14,39,22.70
2013,07,15,14,40,22.70
2013,07,15,14,41,22.60
2013,07,15,14,42,22.60
2013,07,15,14,43,22.60
2013,07,15,14,44,22.70
2013,07,15,14,45,22.80
2013,07,15,14,46,22.90
2013,07,15,14,47,22.90
2013,07,15,14,48,22.90
2013,07,15,14,49,23.00
2013,07,15,14,50,22.90
2013,07,15,14,51,23.00
2013,07,15,14,52,23.00
2013,07,15,14,53,23.00
2013,07,15,14,54,22.90
2013,07,15,14,55,22.80
2013,07,15,14,56,22.90
2013,07,15,14,57,22.90
2013,07,15,14,58,22.90
2013,07,15,14,59,23.00
2013,07,15,15,00,23.10
2013,07,15,15,01,23.30
2013,07,15,15,02,23.30
2013,07,15,15,03,23.20
2013,07,15,15,04,23.20
2013,07,15,15,05,23.20
2013,07,15,15,06,23.20
2013,07,15,15,07,23.00
2013,07,15,15,08,22.80
2013,07,15,15,09,22.80
2013,07,15,15,10,22.80
2013,07,15,15,11,22.90
2013,07,15,15,12,22.90
2013,07,15,15,13,23.10
2013,07,15,15,14,23.10
2013,07,15,15,15,23.30
2013,07,15,15,16,23.10
2013,07,15,15,17,23.10
2013,07,15,15,18,23.20
2013,07,15,15,19,23.30
2013,07,15,15,20,23.20
2013,07,15,15,21,23.10
2013,07,15,15,22,23.10
2013,07,15,15,23,23.20
2013,07,15,15,24,23.20
2013,07,15,15,25,23.30
2013,07,15,15,26,23.30
2013,07,15,15,27,23.30
2013,07,15,15,28,23.20
2013,07,15,15,29,23.20
2013,07,15,15,30,23.20
2013,07,15,15,31,23.20
2013,07,15,15,32,23.30
2013,07,15,15,33,23.40
2013,07,15,15,34,23.60
2013,07,15,15,35,23.70
2013,07,15,15,36,23.70
2013,07,15,15,37,23.70
2013,07,15,15,38,23.70
2013,07,15,15,39,23.60
2013,07,15,15,40,23.60
2013,07,15,15,41,23.60
2013,07,15,15,42,23.60
2013,07,15,15,43,23.70
2013,07,15,15,44,23.80
2013,07,15,15,45,24.00
2013,07,15,15,46,24.10
2013,07,15,15,47,23.90
2013,07,15,15,48,23.90
2013,07,15,15,49,23.80
2013,07,15,15,50,23.70
2013,07,15,15,51,23.70
2013,07,15,15,52,23.80
2013,07,15,15,53,23.80
2013,07,15,15,54,23.90
2013,07,15,15,55,24.00
2013,07,15,15,56,24.10
2013,07,15,15,57,24.20
2013,07,15,15,58,24.20
2013,07,15,15,59,24.10
2013,07,15,16,00,24.10
2013,07,15,16,01,24.10
2013,07,15,16,02,24.10
2013,07,15,16,03,24.00
2013,07,15,16,04,24.00
2013,07,15,16,05,24.10
2013,07,15,16,06,24.20
2013,07,15,16,07,24.40
2013,07,15,16,08,24.60
2013,07,15,16,09,24.80
2013,07,15,16,10,25.00
2013,07,15,16,11,25.20
2013,07,15,16,12,25.40
2013,07,15,16,13,25.70
2013,07,15,16,14,25.80
2013,07,15,16,15,25.90
2013,07,15,16,16,25.80
2013,07,15,16,17,25.60
2013,07,15,16,18,25.40
2013,07,15,16,19,25.10
2013,07,15,16,20,24.70
2013,07,15,16,21,24.40
2013,07,15,16,22,24.30
2013,07,15,16,23,24.30
2013,07,15,16,24,24.30
2013,07,15,16,25,24.30
2013,07,15,16,26,24.20
2013,07,15,16,27,24.20
2013,07,15,16,28,24.10
2013,07,15,16,29,24.20
2013,07,15,16,30,24.30
2013,07,15,16,31,24.30
2013,07,15,16,32,24.40
2013,07,15,16,33,24.50
2013,07,15,16,34,24.50
2013,07,15,16,35,24.50
2013,07,15,16,36,24.30
2013,07,15,16,37,24.00
2013,07,15,16,38,23.70
2013,07,15,16,39,23.50
2013,07,15,16,40,23.20
2013,07,15,16,41,23.10
2013,07,15,16,42,23.10
2013,07,15,16,43,23.20
2013,07,15,16,44,23.30
2013,07,15,16,45,23.40
2013,07,15,16,46,23.50
2013,07,15,16,47,23.60
2013,07,15,16,48,23.70
2013,07,15,16,49,23.70
2013,07,15,16,50,23.70
2013,07,15,16,51,23.70
2013,07,15,16,52,23.70
2013,07,15,16,53,23.70
2013,07,15,16,54,23.70
2013,07,15,16,55,23.70
2013,07,15,16,56,23.70
2013,07,15,16,57,23.80
2013,07,15,16,58,23.80
2013,07,15,16,59,23.90
2013,07,15,17,00,23.90
2013,07,15,17,01,24.10
2013,07,15,17,02,24.10
2013,07,15,17,03,23.80
2013,07,15,17,04,23.70
2013,07,15,17,05,23.70
2013,07,15,17,06,23.70
2013,07,15,17,07,23.50
2013,07,15,17,08,23.30
2013,07,15,17,09,23.20
2013,07,15,17,10,23.10
2013,07,15,17,11,23.10
2013,07,15,17,12,23.20
2013,07,15,17,13,23.20
2013,07,15,17,14,23.30
2013,07,15,17,15,23.30
2013,07,15,17,16,23.20
2013,07,15,17,17,23.20
2013,07,15,17,18,23.30
2013,07,15,17,19,23.30